Location: Horowhenua
(40.7500°S, 175.3333°E)
Time: 04:37:35
(UTC+00:00)

CZ-4B R/B - Pass Details

Date: 28 January 2023
Orbit: 701 x 802 km, 99.0° (Epoch: 01 April)

Event Time Altitude Azimuth Distance (km) Brightness Sun altitude
Rises 16:42:21 0° 23° (NNE) 3,285 6.7 -7.3°
Reaches altitude 10° 16:44:42 10° 25° (NNE) 2,354 6.0 -6.9°
Maximum altitude 16:49:52 69° 107° (ESE) 841 4.0 -6.1°
Drops below altitude 10° 16:54:58 10° 189° (S) 2,325 6.3 -5.2°
Sets 16:57:16 0° 191° (S) 3,242 7.0 -4.9°
